Location: Mizzole
(45.4833°N, 11.0500°E)
Time: 05:39:27
(UTC+00:00)

Meteor 2-10 - Pass Details

Date: 21 October 2019
Orbit: 738 x 869 km, 81.2° (Epoch: 15 November)

Event Time Altitude Azimuth Distance (km) Brightness Sun altitude
Rises 17:12:46 0° 189° (S) 3,187 7.4 -9.8°
Reaches altitude 10° 17:15:06 10° 190° (S) 2,256 6.6 -10.2°
Maximum altitude 17:20:09 89° 275° (W) 746 4.0 -11.1°
Drops below altitude 10° 17:25:13 10° 11° (N) 2,258 6.3 -12.0°
Sets 17:27:33 0° 11° (NNE) 3,189 7.1 -12.4°
